When you browse on this site, cookies collect data to enhance your experience and personalize the content and advertising you see.
Visit our Privacy Policy to learn more. By continuing to use the site, you agree to this use of cookies and data.
  • In Latvia
  • List of Countries
  • For 7 days
  • Water Temperature
  • Satellite Maps
  • Weather Map
  • Weather Widgets
  • user-avatar
    Login

    Hourly Weather Newcastle

    Today, 19 January, Saturday

    Time Temperature Precipitation Wind Pressure Humidity
    00:00 +29°C° 0 mm 2 mps 757 mmHg 60%
    01:00 +28°C° 0 mm 2 mps 757 mmHg 59%
    02:00 +28°C° 0 mm 2 mps 757 mmHg 61%
    03:00 +28°C° 0 mm 2 mps 758 mmHg 63%
    04:00 +27°C° 0 mm 3 mps 758 mmHg 70%
    05:00 +27°C° 0 mm 3 mps 758 mmHg 74%
    06:00 +27°C° 0 mm 3 mps 759 mmHg 78%
    07:00 +28°C° 0 mm 3 mps 759 mmHg 82%
    08:00 +30°C° 0 mm 3 mps 760 mmHg 72%
    09:00 +33°C° 0 mm 4 mps 760 mmHg 62%
    10:00 +40°C° 0 mm 4 mps 760 mmHg 34%
    11:00 +36°C° 0.1 mm 5 mps 760 mmHg 47%
    12:00 +33°C° 0.1 mm 7 mps 761 mmHg 60%
    13:00 +29°C° 0.1 mm 8 mps 761 mmHg 72%
    14:00 +28°C° 0 mm 7 mps 761 mmHg 73%
    15:00 +27°C° 0 mm 6 mps 761 mmHg 73%
    16:00 +27°C° 0 mm 5 mps 761 mmHg 72%
    17:00 +26°C° 0.8 mm 5 mps 762 mmHg 77%
    18:00 +25°C° 0.8 mm 5 mps 763 mmHg 83%
    19:00 +23°C° 0.8 mm 5 mps 763 mmHg 88%
    20:00 +23°C° 0.5 mm 4 mps 764 mmHg 90%
    21:00 +23°C° 0.5 mm 4 mps 764 mmHg 91%
    22:00 +22°C° 0.5 mm 3 mps 764 mmHg 92%
    23:00 +22°C° 0.6 mm 3 mps 764 mmHg 93%

    Tomorrow, 20 January, Sunday

    Time Temperature Precipitation Wind Pressure Humidity
    00:00 +22°C° 0.6 mm 3 mps 764 mmHg 94%
    01:00 +23°C° 0.6 mm 2 mps 764 mmHg 95%
    02:00 +23°C° 0.4 mm 2 mps 764 mmHg 95%
    03:00 +23°C° 0.4 mm 2 mps 764 mmHg 95%
    04:00 +23°C° 0.4 mm 2 mps 764 mmHg 96%
    05:00 +23°C° 0.1 mm 2 mps 764 mmHg 94%
    06:00 +23°C° 0.1 mm 2 mps 764 mmHg 93%
    07:00 +24°C° 0.1 mm 2 mps 764 mmHg 92%
    08:00 +25°C° 0 mm 2 mps 764 mmHg 82%
    09:00 +27°C° 0 mm 3 mps 764 mmHg 72%
    10:00 +29°C° 0 mm 3 mps 764 mmHg 63%
    11:00 +29°C° 0 mm 3 mps 763 mmHg 61%
    12:00 +29°C° 0 mm 3 mps 763 mmHg 60%
    13:00 +30°C° 0 mm 3 mps 763 mmHg 58%
    14:00 +30°C° 0 mm 4 mps 762 mmHg 58%
    15:00 +30°C° 0 mm 4 mps 762 mmHg 58%
    16:00 +30°C° 0 mm 4 mps 761 mmHg 58%
    17:00 +28°C° 0 mm 4 mps 762 mmHg 65%
    18:00 +27°C° 0 mm 4 mps 762 mmHg 72%
    19:00 +25°C° 0 mm 4 mps 762 mmHg 79%
    20:00 +25°C° 0.1 mm 3 mps 763 mmHg 83%
    21:00 +24°C° 0.1 mm 2 mps 763 mmHg 88%
    22:00 +24°C° 0.1 mm 1 mps 764 mmHg 92%
    23:00 +24°C° 0.1 mm 1 mps 764 mmHg 93%

    Day after tomorrow, 21 January, Monday

    Time Temperature Precipitation Wind Pressure Humidity
    00:00 +24°C° 0.1 mm 1 mps 764 mmHg 94%
    01:00 +24°C° 0.1 mm 2 mps 763 mmHg 95%
    02:00 +24°C° 0 mm 2 mps 763 mmHg 95%
    03:00 +24°C° 0 mm 2 mps 763 mmHg 96%
    04:00 +24°C° 0 mm 2 mps 762 mmHg 96%
    05:00 +24°C° 0 mm 2 mps 763 mmHg 96%
    06:00 +24°C° 0 mm 2 mps 763 mmHg 95%
    07:00 +25°C° 0 mm 2 mps 763 mmHg 94%
    08:00 +25°C° 0.1 mm 2 mps 763 mmHg 94%
    09:00 +25°C° 0.1 mm 2 mps 763 mmHg 94%
    10:00 +25°C° 0.1 mm 2 mps 763 mmHg 94%
    11:00 +27°C° 0.1 mm 3 mps 763 mmHg 85%
    12:00 +29°C° 0.1 mm 3 mps 763 mmHg 76%
    13:00 +32°C° 0.1 mm 4 mps 762 mmHg 67%
    14:00 +30°C° 0.3 mm 4 mps 762 mmHg 71%
    15:00 +29°C° 0.3 mm 4 mps 761 mmHg 74%
    16:00 +29°C° 0.3 mm 4 mps 761 mmHg 78%
    17:00 +28°C° 0 mm 4 mps 761 mmHg 79%
    18:00 +28°C° 0 mm 4 mps 761 mmHg 80%
    19:00 +28°C° 0 mm 3 mps 761 mmHg 82%
    20:00 +27°C° 0 mm 3 mps 762 mmHg 85%
    21:00 +26°C° 0 mm 3 mps 762 mmHg 88%
    22:00 +25°C° 0 mm 3 mps 762 mmHg 92%
    23:00 +25°C° 0 mm 3 mps 762 mmHg 94%

    22 January, Tuesday

    Time Temperature Precipitation Wind Pressure Humidity
    00:00 +24°C° 0 mm 2 mps 761 mmHg 96%
    01:00 +24°C° 0 mm 2 mps 761 mmHg 98%
    02:00 +23°C° 0 mm 2 mps 761 mmHg 98%
    03:00 +23°C° 0 mm 2 mps 761 mmHg 98%
    04:00 +22°C° 0 mm 3 mps 760 mmHg 98%
    05:00 +24°C° 0 mm 3 mps 761 mmHg 90%
    06:00 +25°C° 0 mm 3 mps 761 mmHg 82%
    07:00 +26°C° 0 mm 3 mps 761 mmHg 75%
    08:00 +29°C° 0 mm 3 mps 761 mmHg 63%
    09:00 +33°C° 0 mm 3 mps 761 mmHg 51%
    10:00 +36°C° 0 mm 3 mps 761 mmHg 39%
    11:00 +37°C° 0 mm 3 mps 760 mmHg 35%
    12:00 +40°C° 0 mm 4 mps 759 mmHg 32%
    13:00 +41°C° 0 mm 4 mps 759 mmHg 29%
    14:00 +40°C° 0 mm 5 mps 758 mmHg 32%
    15:00 +40°C° 0 mm 6 mps 758 mmHg 34%
    16:00 +39°C° 0 mm 6 mps 757 mmHg 37%
    17:00 +36°C° 0 mm 6 mps 757 mmHg 44%
    18:00 +34°C° 0 mm 6 mps 757 mmHg 51%
    19:00 +32°C° 0 mm 6 mps 758 mmHg 58%
    20:00 +30°C° 0 mm 5 mps 758 mmHg 62%
    21:00 +28°C° 0 mm 4 mps 758 mmHg 66%
    22:00 +27°C° 0 mm 3 mps 759 mmHg 70%
    23:00 +26°C° 0 mm 3 mps 758 mmHg 74%

    23 January, Wednesday

    Time Temperature Precipitation Wind Pressure Humidity
    00:00 +26°C° 0 mm 3 mps 758 mmHg 77%
    01:00 +25°C° 0 mm 3 mps 757 mmHg 81%
    02:00 +25°C° 0 mm 2 mps 757 mmHg 81%
    03:00 +24°C° 0 mm 2 mps 757 mmHg 81%
    04:00 +24°C° 0 mm 1 mps 756 mmHg 81%
    05:00 +25°C° 0.1 mm 2 mps 757 mmHg 76%
    06:00 +26°C° 0.1 mm 2 mps 757 mmHg 72%
    07:00 +28°C° 0.1 mm 2 mps 758 mmHg 68%
    08:00 +30°C° 0 mm 2 mps 758 mmHg 58%
    09:00 +34°C° 0 mm 3 mps 758 mmHg 48%
    10:00 +37°C° 0 mm 3 mps 757 mmHg 38%
    11:00 +38°C° 0 mm 2 mps 757 mmHg 33%
    12:00 +40°C° 0 mm 2 mps 756 mmHg 29%
    13:00 +42°C° 0 mm 2 mps 756 mmHg 24%
    14:00 +42°C° 0 mm 3 mps 756 mmHg 29%
    15:00 +39°C° 0 mm 3 mps 755 mmHg 33%
    16:00 +37°C° 0 mm 4 mps 755 mmHg 38%
    17:00 +35°C° 0 mm 4 mps 756 mmHg 48%
    18:00 +31°C° 0 mm 3 mps 757 mmHg 58%
    19:00 +29°C° 0 mm 3 mps 757 mmHg 68%
    20:00 +28°C° 0.1 mm 4 mps 758 mmHg 75%
    21:00 +26°C° 0.1 mm 4 mps 758 mmHg 81%
    22:00 +25°C° 0.1 mm 5 mps 759 mmHg 88%
    23:00 +25°C° 0.5 mm 5 mps 759 mmHg 89%

    24 January, Thursday

    Time Temperature Precipitation Wind Pressure Humidity
    00:00 +23°C° 0.5 mm 5 mps 759 mmHg 90%
    01:00 +22°C° 0.5 mm 6 mps 759 mmHg 90%
    02:00 +23°C° 0.1 mm 5 mps 759 mmHg 91%
    03:00 +23°C° 0.1 mm 5 mps 759 mmHg 92%
    04:00 +23°C° 0.1 mm 5 mps 759 mmHg 93%
    05:00 +23°C° 0.1 mm 4 mps 760 mmHg 93%
    06:00 +23°C° 0.1 mm 4 mps 760 mmHg 93%
    07:00 +25°C° 0.1 mm 4 mps 761 mmHg 93%
    08:00 +25°C° 0.2 mm 4 mps 761 mmHg 93%
    09:00 +25°C° 0.2 mm 3 mps 761 mmHg 94%
    10:00 +25°C° 0.2 mm 3 mps 761 mmHg 94%
    11:00 +25°C° 0.2 mm 3 mps 761 mmHg 93%
    12:00 +25°C° 0.2 mm 3 mps 760 mmHg 93%
    13:00 +26°C° 0.2 mm 3 mps 760 mmHg 92%
    14:00 +27°C° 0.1 mm 3 mps 760 mmHg 84%
    15:00 +29°C° 0.1 mm 3 mps 760 mmHg 75%
    16:00 +30°C° 0.1 mm 4 mps 759 mmHg 67%
    17:00 +29°C° 0 mm 3 mps 760 mmHg 74%
    18:00 +28°C° 0 mm 3 mps 760 mmHg 82%
    19:00 +26°C° 0 mm 2 mps 760 mmHg 89%
    20:00 +26°C° 0 mm 2 mps 761 mmHg 92%
    21:00 +25°C° 0 mm 1 mps 761 mmHg 95%
    22:00 +25°C° 0 mm 1 mps 761 mmHg 98%
    23:00 +24°C° 0 mm 1 mps 761 mmHg 98%
    Show more